Wind_Speed
10 12 5 11 10 16 7 6 3 10 7 7 10 13 15 16 18 18 21 21 24 26 25 24 20 15 8 5 6 15 18 18 19 22 24 28 30 31 33 32 34 36 37 39
15 11 8 8 4 9 14 17 17 10 9 8 9 11 12 14 18 21 22 23 21 21 23 24 29 28 24 18 9 8 3 3 11 18 21 19 21 22 22 23 27 27 29 31
4 6 7 4 5 8 9 10 6 3 7 8 9 11 12 16 17 17 19 20 20 23 23 23 23 23 20 23 22 18 16 13 9 3 12 19 17 14 19 20 23 26 27 31
6 6 6 6 8 7 7 7 7 6 4 6 7 11 12 14 15 15 16 16 17 19 21 22 22 21 23 21 17 15 14 14 15 13 10 5 6 12 17 19 19 22 27 32
5 4 5 7 10 9 7 2 4 5 5 4 6 7 10 10 12 13 14 15 15 17 17 18 17 17 18 16 15 13 12 12 12 12 12 12 12 11 9 7 8 12 15 19
5 7 6 8 12 11 7 3 4 4 5 4 4 6 7 10 12 13 14 14 14 15 16 16 15 16 16 15 14 12 12 13 13 13 12 11 10 9 9 9 10 11 11 10
9 9 3 10 14 14 5 6 4 4 5 6 6 5 6 8 10 10 11 12 13 13 13 13 14 13 13 13 11 11 11 11 11 11 12 12 13 13 12 12 13 13 13 13
5 7 4 8 15 12 7 11 7 6 6 6 4 4 5 7 8 9 11 11 12 13 13 13 14 14 14 13 13 13 12 12 12 12 13 13 14 15 15 15 15 15 16 15
6 6 6 9 16 13 15 11 9 8 7 6 5 6 6 6 7 7 8 8 9 10 10 11 12 12 13 13 13 14 15 15 15 14 14 14 14 14 15 16 16 17 17 17
4 4 8 12 15 15 13 10 9 7 5 5 5 4 4 4 5 6 7 8 9 10 12 12 12 12 12 13 13 14 14 14 15 16 17 18 18 17 17 17 18 19 20 20
6 8 9 10 10 10 10 9 8 5 3 2 2 3 4 4 5 6 8 9 10 10 10 11 12 14 15 15 16 17 18 18 19 19 19 19 19 20 20 20 20 20 20 20
6 7 8 10 10 9 7 6 5 3 1 0 1 2 3 5 6 7 8 8 9 10 12 14 16 17 18 19 20 21 22 22 22 22 23 24 25 26 24 24 24 24 25 25
5 7 8 9 9 8 6 4 1 1 1 2 3 4 5 6 7 7 8 11 13 15 16 18 19 20 20 21 22 22 23 24 25 26 27 27 27 28 29 30 30 29 28 28
5 7 8 8 6 3 2 1 0 1 2 3 5 5 6 8 9 11 13 15 16 18 19 20 21 22 23 24 25 26 26 27 28 28 29 29 30 31 32 32 32 32 32 31
4 7 8 6 3 2 2 1 1 2 4 3 4 6 8 10 11 13 15 17 19 20 22 23 25 26 27 27 28 29 30 31 32 33 33 33 33 33 33 33 33 33 33 33
8 7 7 6 4 3 2 2 3 2 2 4 5 7 9 10 12 15 17 18 20 22 24 25 27 28 29 30 31 32 33 33 34 34 35 34 34 34 34 33 33 33 32 31
8 7 6 6 5 4 3 2 2 1 2 4 6 8 10 12 14 16 19 21 23 25 27 28 30 31 32 33 34 35 36 36 36 36 37 36 36 35 34 34 33 32 31 29
6 7 6 6 6 5 5 4 2 1 3 5 7 9 12 14 17 20 23 25 27 28 30 32 32 33 34 34 35 35 35 35 35 35 35 36 35 35 34 33 33 32 30 29
8 8 8 7 7 7 5 3 0 1 3 6 9 11 14 17 20 23 25 28 30 32 32 33 34 35 35 34 34 34 34 33 32 32 32 32 32 32 32 32 31 31 29 28
8 8 8 8 8 6 3 2 1 3 6 8 11 14 17 20 24 27 29 32 32 34 35 36 36 37 36 36 35 34 33 32 32 32 32 31 31 30 30 30 29 29 28 28
9 8 9 9 7 5 4 3 4 6 8 12 15 18 21 24 27 30 32 34 37 36 37 37 37 38 37 35 34 34 33 32 31 31 30 29 29 28 28 28 28 27 26 26
8 10 10 9 7 6 5 5 7 9 12 15 18 22 24 27 30 34 36 36 37 38 38 38 37 36 34 34 33 32 31 31 30 30 29 29 28 27 27 27 27 26 26 25
10 10 9 8 8 7 7 7 10 12 15 18 21 23 27 31 34 35 36 39 38 38 38 37 36 35 34 34 33 33 32 32 31 30 30 30 29 28 27 26 25 25 25 25
11 10 9 9 8 8 9 11 13 16 18 21 24 26 29 33 37 39 38 38 38 38 37 37 37 37 36 35 35 35 35 35 34 34 33 32 31 30 29 28 26 25 25 24
11 10 10 10 10 11 12 14 17 19 22 25 27 29 32 35 36 37 38 38 38 38 37 37 37 37 37 37 37 37 37 37 37 36 36 35 34 33 32 30 29 26 25 24
11 11 12 12 12 14 16 17 19 21 24 28 30 32 35 37 38 38 38 38 38 38 38 37 38 38 38 39 39 39 39 38 38 38 38 37 36 35 34 33 31 29 27 24
12 13 14 14 16 17 18 20 22 23 26 28 31 34 36 37 37 38 38 38 37 37 37 38 39 40 40 40 40 39 39 38 38 37 37 37 36 35 34 33 32 31 28 26
Wind_Direction
254 272 330 357 20 33 91 115 43 141 113 49 23 21 27 41 50 55 52 46 52 67 71 78 95 109 127 163 215 230 238 253 254 254 257 259 261 259 258 257 256 256 258 258
275 267 233 5 42 70 74 82 105 101 73 54 36 32 41 52 58 53 53 52 54 54 61 69 75 81 82 91 99 90 103 254 255 258 263 260 256 257 258 260 258 259 258 261
272 229 204 216 63 101 102 123 102 92 84 65 53 43 53 61 61 64 61 56 56 57 60 64 67 71 73 73 69 65 68 66 55 296 257 256 260 256 257 260 260 256 262 261
275 245 229 184 145 132 120 103 91 85 82 71 54 43 45 56 58 60 64 65 58 55 52 54 58 61 60 61 63 61 60 60 60 56 49 26 299 279 266 270 266 261 264 261
254 247 144 184 205 199 163 93 98 110 109 88 56 51 41 49 56 53 51 50 51 53 52 51 50 53 54 53 50 45 48 50 48 43 37 38 33 32 18 355 315 292 283 274
268 264 219 190 202 202 170 201 125 110 91 76 74 46 42 47 53 53 53 51 51 53 47 44 43 41 39 35 28 19 24 27 26 26 24 21 20 17 12 11 12 14 11 354
249 258 227 201 192 175 197 185 169 139 129 113 96 93 69 55 47 45 44 41 40 42 40 34 36 32 29 29 18 19 22 22 18 12 6 1 1 360 356 354 357 355 350 344
235 238 197 221 190 187 207 168 162 146 129 116 113 93 65 51 43 38 35 32 30 27 24 23 20 17 12 10 7 7 5 3 359 353 348 347 345 343 343 342 341 340 339 338
212 226 229 189 191 191 160 157 155 150 137 130 111 86 71 60 45 35 28 21 21 15 10 9 5 359 359 354 355 354 352 349 346 343 338 335 332 328 324 322 320 319 320 319
159 168 154 150 158 160 155 154 153 147 131 114 96 76 55 37 27 20 14 7 1 358 358 355 354 353 353 352 351 347 341 338 335 332 330 329 328 326 322 318 314 311 310 310
221 180 161 158 156 155 150 150 149 142 126 91 43 30 21 9 360 354 351 351 353 355 355 349 345 341 337 333 331 329 327 324 323 321 319 316 314 312 310 309 308 307 305 302
222 189 177 165 158 153 147 143 136 134 115 29 356 359 3 359 353 350 353 355 350 343 337 334 331 328 326 325 324 323 322 322 321 320 319 318 317 315 313 310 308 306 304 303
225 185 163 159 155 150 139 142 140 15 350 5 4 359 349 353 360 359 349 341 337 334 330 327 326 324 322 321 321 319 318 316 316 316 316 315 313 312 310 308 307 304 301 298
193 170 170 158 132 138 176 177 106 41 350 337 352 358 9 1 349 344 340 336 332 329 327 324 322 321 320 319 318 316 315 314 313 312 310 309 308 307 306 305 303 302 301 300
176 173 167 151 185 210 202 195 311 328 339 8 26 2 349 342 338 336 333 331 328 326 323 321 320 319 318 316 315 315 314 314 313 312 311 309 308 306 304 303 301 299 298 296
183 198 194 213 235 242 227 268 310 337 33 359 345 336 331 331 333 333 330 327 324 323 321 320 319 317 316 315 314 314 314 313 312 311 310 309 307 306 304 303 302 300 298 296
182 209 231 245 240 223 230 246 182 268 321 326 331 336 336 338 335 333 332 329 327 325 323 322 319 318 318 317 317 315 314 312 311 309 307 306 305 304 304 303 301 300 299 297
223 228 232 221 206 212 193 182 198 299 330 342 341 342 343 340 338 336 333 330 327 325 323 321 319 317 316 316 314 313 311 309 307 305 303 303 303 302 303 302 302 301 300 298
227 212 204 205 204 182 180 176 187 333 340 344 343 340 338 339 337 334 333 331 328 324 323 321 319 318 318 317 314 312 310 308 306 304 302 301 300 300 300 300 300 300 299 298
202 198 209 198 184 181 177 188 291 327 332 330 333 337 337 336 334 334 333 330 328 324 323 323 322 321 320 319 317 315 313 310 308 306 305 303 301 300 299 298 298 297 297 296
206 216 198 189 191 194 214 245 292 312 325 331 333 332 332 332 332 331 330 328 326 325 323 322 322 321 319 318 316 314 312 311 309 307 306 305 303 302 300 299 298 297 296 295
215 194 192 196 203 221 241 274 302 318 324 326 326 327 327 328 329 328 327 327 325 324 323 322 321 319 317 316 314 312 311 310 309 308 307 306 304 303 301 299 297 296 295 294
198 198 204 215 226 242 266 288 305 311 315 318 321 323 324 326 327 328 326 325 323 322 321 320 319 317 316 314 313 312 311 310 308 307 306 304 303 302 300 299 297 295 293 291
204 211 220 231 244 260 277 291 300 306 310 314 317 321 324 326 326 325 323 323 322 322 320 319 318 316 315 314 313 311 310 308 307 305 304 302 301 299 298 297 295 294 292 291
217 226 237 247 258 270 282 291 297 304 309 313 318 321 323 323 323 322 322 322 322 321 319 318 317 316 314 313 311 309 307 305 303 302 300 298 297 296 295 294 293 291 290 288
231 241 251 261 270 277 283 290 297 304 309 314 318 321 322 322 323 322 323 322 321 320 319 318 317 316 314 312 310 308 306 304 302 300 298 296 293 292 290 289 287 287 287 285
243 253 263 270 275 280 287 293 299 304 309 313 316 319 320 321 322 322 322 322 321 320 320 319 318 316 315 313 311 309 307 305 302 300 297 295 292 290 287 285 285 283 283 282
Height
3038 3037 3035 3031 3027 3022 3017 3017 3018 3022 3021 3020 3018 3015 3011 3006 3002 2997 2992 2989 2984 2979 2977 2974 2972 2972 2975 2977 2979 2980 2982 2985 2987 2990 2991 2994 2995 2997 2998 3000 3001 3003 3003 3004
3035 3034 3033 3031 3027 3025 3023 3021 3021 3023 3022 3020 3019 3017 3014 3009 3005 3002 2998 2995 2992 2988 2984 2981 2978 2976 2978 2978 2980 2982 2982 2983 2984 2985 2987 2989 2988 2989 2990 2991 2991 2993 2994 2993
3031 3031 3031 3030 3027 3026 3025 3024 3025 3025 3023 3021 3020 3018 3015 3012 3009 3006 3003 3000 2998 2995 2992 2989 2986 2984 2984 2982 2983 2985 2984 2984 2984 2984 2983 2983 2983 2983 2984 2984 2985 2986 2986 2986
3030 3030 3025 3024 3025 3026 3026 3026 3025 3024 3023 3021 3021 3019 3017 3014 3012 3010 3007 3005 3002 3000 2998 2996 2993 2992 2990 2989 2989 2989 2988 2987 2986 2985 2984 2983 2982 2981 2981 2981 2980 2979 2979 2980
3028 3023 3025 3024 3024 3025 3025 3026 3024 3023 3022 3022 3020 3020 3019 3017 3014 3012 3010 3007 3005 3003 3003 3001 3000 2998 2997 2996 2994 2993 2992 2990 2988 2986 2985 2984 2983 2981 2979 2978 2977 2975 2974 2972
3026 3022 3019 3020 3020 3022 3023 3025 3023 3022 3022 3021 3021 3021 3020 3018 3016 3014 3012 3011 3010 3007 3005 3003 3002 3000 2999 2998 2997 2995 2992 2990 2988 2988 2987 2986 2985 2983 2981 2979 2976 2974 2972 2969
3022 3020 3017 3017 3018 3020 3022 3026 3021 3021 3021 3021 3021 3022 3020 3019 3018 3016 3015 3014 3012 3010 3008 3006 3004 3003 3002 3000 2999 2998 2996 2993 2992 2990 2988 2986 2984 2981 2980 2977 2975 2973 2971 2969
3019 3017 3017 3015 3016 3019 3019 3018 3020 3021 3021 3022 3022 3021 3020 3019 3018 3017 3015 3014 3012 3011 3009 3007 3006 3004 3002 3001 2999 2998 2996 2994 2991 2989 2987 2984 2982 2980 2977 2975 2973 2971 2969 2967
3016 3014 3012 3011 3012 3014 3016 3018 3019 3021 3021 3021 3021 3021 3021 3020 3019 3018 3017 3016 3013 3011 3010 3008 3006 3004 3002 3000 2998 2996 2993 2991 2989 2987 2986 2983 2981 2979 2976 2973 2971 2969 2967 2965
3013 3012 3011 3011 3011 3013 3015 3018 3019 3020 3020 3021 3021 3020 3020 3020 3019 3018 3017 3015 3013 3011 3008 3007 3005 3004 3002 3001 2998 2996 2994 2991 2988 2986 2983 2980 2978 2975 2973 2970 2968 2966 2963 2961
3010 3010 3011 3011 3012 3013 3015 3018 3019 3020 3021 3021 3020 3020 3019 3018 3018 3017 3015 3014 3012 3010 3008 3007 3005 3002 3000 2998 2996 2993 2990 2987 2985 2983 2981 2978 2976 2973 2970 2968 2965 2962 2959 2957
3009 3009 3010 3011 3012 3013 3015 3017 3018 3019 3020 3020 3020 3019 3017 3017 3016 3015 3014 3012 3011 3009 3007 3005 3002 2999 2997 2994 2991 2988 2985 2982 2979 2977 2974 2971 2968 2965 2964 2961 2958 2955 2953 2950
3008 3008 3009 3011 3012 3013 3015 3016 3017 3017 3017 3017 3017 3016 3016 3015 3014 3013 3012 3010 3008 3005 3003 3000 2998 2995 2992 2989 2986 2983 2980 2977 2974 2970 2967 2964 2962 2959 2956 2953 2950 2948 2945 2942
3007 3008 3009 3011 3012 3014 3015 3015 3015 3015 3016 3016 3014 3013 3013 3012 3011 3010 3008 3006 3004 3002 2999 2997 2994 2991 2988 2984 2981 2978 2974 2971 2968 2965 2962 2959 2955 2952 2948 2945 2942 2939 2937 2934
3007 3008 3009 3011 3012 3012 3013 3014 3014 3014 3014 3014 3013 3013 3012 3011 3010 3009 3007 3005 3002 3000 2997 2994 2990 2986 2983 2979 2975 2972 2968 2964 2960 2957 2953 2950 2947 2943 2940 2936 2933 2930 2928 2925
3006 3008 3009 3010 3011 3011 3012 3012 3012 3012 3012 3012 3012 3012 3012 3010 3008 3006 3004 3002 2999 2996 2993 2989 2985 2981 2977 2973 2969 2965 2961 2957 2952 2948 2944 2941 2937 2934 2930 2927 2924 2921 2918 2916
3005 3007 3008 3009 3009 3010 3011 3011 3012 3012 3012 3012 3011 3010 3009 3006 3005 3003 3000 2997 2994 2990 2987 2983 2979 2975 2970 2966 2961 2957 2952 2948 2944 2940 2935 2932 2928 2924 2921 2917 2914 2911 2909 2907
3004 3005 3006 3007 3008 3009 3010 3011 3011 3011 3011 3010 3009 3007 3005 3004 3001 2998 2995 2992 2988 2984 2980 2976 2972 2968 2963 2959 2954 2950 2945 2941 2937 2932 2928 2923 2919 2915 2912 2908 2905 2902 2899 2897
3002 3003 3005 3006 3007 3008 3009 3010 3010 3009 3008 3007 3006 3004 3002 2999 2996 2993 2989 2986 2982 2977 2974 2969 2965 2960 2955 2951 2946 2941 2937 2932 2927 2923 2919 2915 2911 2907 2904 2900 2897 2894 2891 2889
3001 3002 3003 3004 3006 3007 3007 3007 3007 3007 3006 3005 3003 3000 2997 2994 2991 2988 2984 2980 2976 2971 2966 2961 2956 2951 2946 2941 2936 2932 2927 2923 2918 2914 2910 2906 2903 2899 2896 2892 2889 2886 2883 2881
3000 3001 3002 3003 3004 3005 3006 3006 3005 3004 3003 3000 2998 2995 2993 2990 2986 2982 2979 2974 2968 2963 2958 2953 2948 2942 2937 2933 2928 2923 2918 2914 2910 2906 2902 2898 2895 2891 2888 2884 2881 2878 2876 2873
2998 2999 3001 3002 3003 3003 3003 3003 3002 3000 2998 2996 2994 2991 2988 2985 2981 2976 2971 2967 2960 2955 2950 2944 2939 2935 2930 2925 2920 2916 2911 2907 2902 2898 2894 2890 2887 2883 2880 2877 2874 2871 2868 2866
2996 2997 2998 2999 3000 3000 3000 2999 2998 2996 2995 2993 2990 2987 2983 2978 2973 2969 2964 2957 2953 2947 2942 2937 2932 2927 2922 2917 2912 2907 2903 2899 2895 2890 2886 2883 2879 2875 2872 2869 2866 2863 2860 2858
2994 2995 2996 2996 2997 2997 2996 2995 2994 2992 2990 2988 2985 2981 2977 2972 2965 2960 2956 2950 2945 2940 2934 2929 2923 2918 2912 2908 2903 2898 2894 2889 2885 2881 2877 2874 2870 2867 2864 2861 2858 2856 2853 2850
2991 2992 2993 2993 2994 2993 2992 2991 2989 2987 2984 2981 2978 2974 2970 2965 2960 2954 2948 2942 2936 2931 2926 2920 2915 2909 2904 2899 2894 2889 2884 2879 2875 2871 2867 2863 2860 2857 2854 2851 2849 2847 2845 2842
2989 2990 2990 2990 2990 2989 2988 2986 2984 2981 2978 2974 2970 2966 2961 2956 2950 2945 2939 2934 2928 2922 2917 2911 2905 2900 2895 2889 2884 2878 2873 2868 2864 2859 2855 2852 2849 2846 2844 2841 2839 2837 2836 2834
2986 2986 2986 2986 2985 2984 2982 2980 2978 2975 2972 2968 2964 2959 2954 2948 2943 2937 2931 2925 2920 2914 2908 2902 2896 2890 2884 2878 2872 2867 2862 2857 2852 2847 2843 2840 2837 2834 2832 2830 2828 2827 2826 2825